Wetbulb
70.49 73.87 72.29 73.11 73.33 73.58 73.58 73.78 73.58 73.54 73.77 73.78 74.10 74.28 74.21 74.36 74.21 74.31 74.16 74.10 74.12 74.43 74.87 74.32 73.75 72.80 72.43 72.58 72.39 73.31 73.06 72.69 72.29 72.58 72.44 72.78 72.34 71.99 71.77 71.89 71.72 71.51 71.73
72.62 73.55 71.36 72.65 73.06 73.46 73.56 73.48 73.68 73.63 73.63 74.01 74.08 74.08 74.21 74.23 74.15 74.03 74.01 73.93 74.02 74.53 74.50 74.18 73.13 72.70 72.60 72.44 73.10 72.58 72.36 71.78 71.51 71.66 71.87 72.24 71.87 71.71 71.46 71.45 71.55 71.23 71.52
73.01 73.46 72.82 71.84 72.80 73.13 73.33 73.46 73.83 74.09 74.06 73.89 74.03 74.03 74.01 74.05 74.15 73.83 73.66 73.65 73.74 74.43 74.37 73.40 72.99 72.99 72.56 72.49 71.94 71.82 71.77 71.48 71.07 71.06 70.93 70.84 71.13 71.55 71.35 71.08 70.97 71.12 70.86
72.99 74.28 73.27 71.21 72.36 73.01 73.13 73.26 73.48 74.38 74.22 73.99 73.98 74.05 73.26 74.03 73.93 72.99 73.40 73.27 73.74 74.03 73.85 73.29 73.39 73.23 72.35 71.67 71.22 71.21 71.22 70.84 70.46 70.74 70.49 70.25 70.71 71.03 70.88 70.55 70.67 70.63 70.60
71.46 73.35 74.04 70.87 71.72 72.54 72.91 73.13 73.19 73.74 73.75 73.68 73.58 74.03 73.96 73.98 73.89 73.09 72.57 73.21 73.37 73.95 73.35 73.07 73.23 72.36 71.38 70.66 70.42 70.44 70.40 70.01 69.03 69.26 69.86 70.29 70.17 70.60 70.93 70.58 70.00 69.97 69.94
71.38 72.49 70.36 70.30 71.05 72.11 72.66 72.86 73.06 73.04 72.70 73.05 73.12 73.65 73.93 73.86 73.52 72.08 71.42 73.00 73.35 73.75 73.28 73.05 72.22 71.46 70.25 69.80 69.79 69.70 69.46 69.24 67.77 69.24 69.08 69.30 69.52 69.98 70.02 69.68 70.00 69.71 69.48
71.87 73.31 73.51 69.53 70.21 71.68 72.47 72.69 72.37 72.06 72.30 72.45 72.99 72.93 73.13 73.31 73.05 71.32 71.71 72.30 72.60 72.39 72.29 71.83 71.53 70.25 69.85 69.44 69.33 68.92 68.62 68.67 69.20 68.73 69.30 69.40 69.56 69.60 69.79 69.11 68.67 68.99 68.57
72.57 73.36 74.03 70.44 70.25 70.59 71.33 71.88 71.44 71.31 71.50 71.90 72.34 71.73 72.56 71.25 71.30 70.60 70.69 70.82 70.81 70.54 70.03 70.76 70.05 69.65 69.29 68.92 68.43 67.87 67.36 67.52 68.18 68.55 68.40 69.22 68.59 68.87 68.80 68.41 67.94 67.92 67.29
73.51 73.55 74.29 72.75 71.39 69.56 69.28 70.06 70.43 70.77 70.43 69.82 70.34 69.76 70.22 69.06 69.33 69.70 69.67 69.72 69.85 69.30 69.47 69.76 69.34 68.82 68.61 67.85 67.29 66.06 65.64 66.86 67.92 67.28 67.44 67.89 68.13 68.29 67.97 67.44 67.33 66.71 66.46
72.90 73.45 73.83 73.38 73.42 72.86 72.64 69.08 69.54 70.04 69.19 69.72 70.51 68.92 68.46 68.76 67.69 68.22 67.60 67.81 67.79 68.65 68.86 69.18 67.98 67.75 67.48 66.50 65.82 64.94 64.86 65.39 67.83 66.65 66.01 67.02 67.63 67.03 66.79 66.37 66.43 65.93 65.74
71.69 72.69 72.02 72.14 72.97 73.26 72.11 71.60 69.57 69.43 69.33 68.53 68.89 67.89 67.39 69.95 68.91 68.16 65.38 65.63 67.08 67.17 67.20 67.76 67.29 66.57 65.26 65.35 65.09 64.43 64.62 66.93 66.30 66.72 66.09 66.20 66.67 65.88 65.49 65.18 65.26 65.00 64.68
69.73 71.53 72.79 70.91 72.71 72.71 71.40 72.35 72.24 71.80 71.18 70.91 70.04 70.55 70.72 70.47 68.88 66.86 64.24 64.37 66.86 66.53 67.15 67.08 66.10 65.12 65.34 66.63 65.70 64.58 66.85 66.79 66.01 65.95 65.39 65.25 66.06 65.71 64.94 64.20 64.24 64.14 63.81
69.80 70.78 71.76 71.42 72.21 72.03 71.21 71.73 72.20 71.10 70.68 71.07 70.74 70.53 70.63 70.35 67.83 68.43 65.88 66.82 67.48 67.33 67.63 66.10 65.46 67.83 67.88 67.47 66.37 66.42 65.80 66.02 65.29 65.73 64.69 64.90 65.96 65.18 64.63 63.89 63.58 63.62 63.24
68.91 70.02 70.97 71.75 71.54 71.49 70.78 71.46 71.35 70.41 70.07 70.39 70.17 69.85 69.54 69.15 67.57 66.61 67.28 67.29 67.23 67.75 66.32 65.63 66.24 68.22 67.17 66.69 66.50 65.88 65.27 64.64 64.85 65.09 64.17 64.21 65.16 64.78 64.39 63.58 63.37 63.13 62.57
67.48 69.43 70.80 71.25 70.78 70.14 69.45 69.34 70.11 70.70 70.49 70.56 69.93 69.87 69.24 68.05 66.77 65.47 65.88 65.94 66.38 67.15 65.70 65.07 65.24 67.40 66.68 65.84 65.54 64.36 64.52 64.54 64.49 64.72 63.63 63.12 63.70 64.72 63.92 63.70 63.51 62.85 62.47
66.99 69.01 70.54 70.39 69.87 69.25 68.09 68.01 68.40 69.83 69.66 69.87 69.28 69.49 68.84 68.37 67.42 66.20 64.48 65.92 66.66 66.34 64.57 64.10 64.48 65.81 66.19 64.35 64.21 64.22 64.26 64.07 63.58 63.46 63.27 63.52 61.98 63.15 63.74 63.41 63.25 62.80 62.69
64.97 68.82 69.89 70.20 69.95 69.54 69.21 67.64 67.98 67.87 68.20 67.33 67.80 69.12 68.44 68.46 68.00 67.30 66.62 65.61 65.48 64.53 63.47 63.63 63.74 66.18 65.55 63.74 63.64 63.76 63.79 62.80 62.48 62.78 62.78 62.90 61.95 60.94 62.29 63.75 63.63 62.92 62.80
64.71 68.09 69.86 69.40 69.02 69.23 68.74 67.42 66.06 67.40 67.99 66.74 67.29 67.76 67.80 67.64 67.35 64.98 64.11 64.15 64.66 63.60 63.42 63.09 62.86 64.79 63.40 63.59 61.18 63.01 62.72 62.13 62.15 62.38 62.18 62.22 61.92 61.25 61.41 62.24 63.08 63.26 62.91
65.91 68.21 69.20 69.05 68.06 68.52 68.55 65.66 65.29 65.99 65.59 65.97 66.77 66.54 66.96 66.18 65.90 65.15 64.91 63.38 63.74 63.18 62.69 62.35 62.04 64.66 62.83 61.51 61.09 62.37 62.47 61.67 61.27 61.40 62.02 62.21 62.09 61.63 61.79 60.90 61.18 61.51 62.19
66.70 68.43 69.32 68.41 68.39 68.25 66.88 64.92 65.58 64.21 64.48 64.88 64.72 65.05 66.13 66.19 64.66 65.27 63.75 62.47 62.77 61.94 61.65 61.87 61.55 63.84 62.95 62.29 60.52 60.51 62.10 61.71 61.36 61.17 61.52 61.98 62.16 62.22 62.11 61.68 61.34 60.57 60.29
67.04 67.96 68.44 67.58 67.74 66.96 65.57 64.18 63.71 63.82 64.08 64.14 64.41 64.28 64.24 64.81 65.63 65.14 63.10 61.95 61.59 61.56 60.87 61.40 60.92 61.61 61.76 61.82 59.87 58.42 60.28 61.34 61.96 60.83 61.24 60.91 61.48 61.72 62.52 63.33 62.16 61.12 60.24
66.22 67.52 68.04 67.02 66.99 66.40 65.73 64.80 64.22 63.83 64.78 64.94 64.93 64.56 63.99 63.84 64.48 62.84 62.65 61.27 61.66 60.57 59.58 59.76 60.58 60.19 61.27 61.95 57.74 58.15 54.25 56.87 59.41 60.29 60.65 60.77 61.44 61.45 61.15 61.98 61.98 61.57 62.04
65.34 67.16 67.43 66.91 66.40 66.00 65.78 64.97 64.10 62.70 63.82 62.64 63.58 64.28 63.72 64.58 64.54 64.08 61.88 60.87 60.66 59.90 58.77 59.31 60.09 59.78 58.92 60.98 61.71 58.40 53.80 52.90 56.20 59.48 60.18 60.45 61.97 60.93 61.48 61.30 61.36 61.66 62.30
64.95 67.19 67.48 66.96 66.17 66.00 65.71 64.08 62.67 61.62 60.00 62.59 62.99 63.74 63.79 63.93 64.23 63.60 61.34 60.76 60.19 59.73 58.86 59.50 60.91 60.63 60.29 59.12 61.23 61.63 60.47 59.16 55.31 54.46 59.04 59.78 60.70 60.20 61.37 60.88 60.80 61.36 61.92
65.15 66.40 67.28 67.02 66.31 65.94 65.60 65.29 63.59 62.35 62.70 63.32 62.66 62.29 62.04 62.38 61.51 61.01 60.90 60.25 59.70 59.51 59.12 59.40 60.09 60.64 61.03 60.17 60.49 60.89 60.35 59.90 58.59 56.78 54.37 56.78 59.71 60.13 60.82 61.45 61.31 61.39 61.77
64.76 66.60 66.54 66.10 65.59 65.78 66.00 65.12 63.78 62.84 62.23 62.30 61.69 61.25 60.53 60.48 59.78 59.14 59.98 60.29 60.40 59.95 59.23 59.50 60.59 61.49 61.65 61.79 61.42 60.81 59.52 58.23 57.49 57.36 56.37 56.97 57.70 59.44 60.57 61.10 60.76 61.14 61.92
MSLP
1002.31 1004.60 1005.68 1006.18 1006.64 1007.06 1007.40 1007.76 1008.08 1008.39 1008.82 1009.24 1009.51 1009.69 1010.02 1010.34 1010.53 1010.58 1010.77 1011.02 1011.30 1011.56 1011.91 1012.40 1012.93 1013.43 1013.61 1013.83 1014.07 1014.23 1014.42 1014.55 1014.67 1014.94 1015.23 1015.54 1015.85 1015.99 1016.08 1016.18 1016.26 1016.54 1017.18
1002.90 1004.57 1005.77 1006.10 1006.46 1006.91 1007.34 1007.66 1008.01 1008.39 1008.53 1009.08 1009.60 1009.95 1010.06 1010.34 1010.71 1010.90 1011.10 1011.34 1011.54 1011.68 1011.95 1012.40 1012.86 1013.33 1013.74 1014.11 1014.37 1014.67 1014.85 1014.99 1015.22 1015.51 1015.79 1016.02 1016.23 1016.32 1016.44 1016.56 1016.70 1017.38 1017.57
1003.39 1004.61 1005.82 1006.25 1006.61 1006.96 1007.37 1007.55 1007.91 1008.26 1008.58 1008.87 1009.45 1009.89 1010.19 1010.40 1010.85 1011.10 1011.42 1011.59 1011.73 1011.95 1012.23 1012.62 1012.99 1013.42 1013.91 1014.35 1014.65 1014.90 1015.18 1015.38 1015.57 1015.79 1015.79 1015.70 1016.38 1016.86 1016.97 1017.19 1017.64 1017.91 1018.08
1003.50 1004.52 1005.36 1006.50 1006.86 1007.26 1007.58 1007.94 1007.99 1008.15 1008.53 1008.80 1009.26 1009.68 1010.12 1010.55 1010.79 1011.11 1011.50 1011.80 1011.97 1012.22 1012.58 1012.76 1013.07 1013.52 1014.12 1014.58 1014.96 1015.21 1015.43 1015.62 1015.72 1015.65 1015.61 1015.91 1016.60 1017.29 1017.40 1017.74 1018.15 1018.34 1018.62
1003.41 1004.15 1004.90 1006.37 1006.81 1007.17 1007.52 1007.80 1008.18 1008.36 1008.58 1008.95 1009.16 1009.56 1009.99 1010.43 1010.86 1011.12 1011.52 1011.74 1012.02 1012.32 1012.74 1013.10 1013.24 1013.86 1014.30 1014.70 1015.06 1015.39 1015.62 1015.72 1015.66 1016.10 1015.77 1016.23 1016.96 1017.68 1017.92 1018.27 1018.57 1018.88 1018.97
1003.53 1003.96 1005.73 1006.31 1006.82 1007.18 1007.52 1007.80 1007.96 1008.38 1008.78 1009.06 1009.38 1009.56 1009.94 1010.22 1010.64 1011.03 1011.24 1011.90 1012.14 1012.39 1012.73 1013.14 1013.67 1014.30 1014.60 1015.00 1015.24 1015.56 1015.72 1015.94 1016.30 1016.32 1016.66 1017.04 1017.36 1018.21 1018.49 1018.83 1019.13 1019.32 1019.67
1003.82 1004.26 1005.76 1006.38 1006.82 1007.15 1007.54 1007.86 1008.18 1008.35 1008.73 1009.10 1009.44 1009.76 1009.94 1010.12 1010.56 1010.93 1011.30 1011.66 1012.14 1012.62 1012.95 1013.49 1014.03 1014.48 1014.90 1015.23 1015.50 1015.67 1015.81 1016.32 1016.36 1016.58 1017.10 1017.60 1018.14 1018.58 1018.93 1019.26 1019.67 1019.91 1020.13
1004.14 1004.81 1005.54 1006.69 1007.13 1007.40 1007.69 1008.00 1008.30 1008.70 1008.81 1009.00 1009.30 1009.77 1010.03 1009.94 1010.48 1010.90 1011.05 1011.62 1012.14 1012.60 1013.09 1013.82 1014.30 1014.70 1015.15 1015.52 1015.84 1015.91 1016.10 1016.40 1016.52 1016.36 1017.23 1018.15 1018.76 1019.01 1019.34 1019.79 1020.06 1020.49 1020.67
1004.46 1005.13 1005.69 1006.41 1006.98 1007.52 1007.84 1008.13 1008.32 1008.65 1008.98 1009.16 1009.27 1009.68 1010.01 1010.45 1010.90 1010.27 1011.37 1011.89 1012.24 1012.90 1013.24 1014.16 1014.46 1014.93 1015.33 1015.76 1016.11 1016.28 1016.33 1016.75 1016.75 1016.88 1017.31 1018.12 1019.13 1019.38 1019.82 1020.18 1020.34 1020.76 1021.04
1004.56 1005.16 1005.82 1006.32 1006.53 1006.98 1007.45 1008.19 1008.40 1008.46 1008.98 1009.19 1009.44 1009.61 1009.92 1010.62 1011.33 1012.00 1012.42 1012.67 1013.30 1013.49 1013.87 1014.38 1014.75 1015.32 1015.68 1015.88 1016.24 1016.52 1016.47 1016.18 1016.08 1016.55 1017.62 1018.28 1019.10 1019.70 1020.00 1020.39 1020.66 1020.99 1021.30
1004.14 1004.98 1006.12 1006.50 1006.43 1006.61 1007.11 1007.58 1008.32 1008.64 1008.69 1009.23 1009.36 1009.65 1009.98 1010.65 1011.26 1011.83 1012.26 1013.41 1013.19 1013.92 1013.99 1014.65 1015.02 1015.49 1015.80 1016.15 1016.39 1016.64 1016.58 1015.70 1015.98 1016.41 1017.73 1018.60 1019.02 1019.72 1020.21 1020.65 1020.95 1021.27 1021.44
1003.56 1004.48 1005.56 1006.40 1006.25 1006.48 1006.49 1007.42 1007.65 1007.86 1008.18 1008.68 1008.78 1009.42 1009.62 1010.40 1011.10 1011.87 1012.29 1012.38 1013.45 1014.01 1014.19 1014.62 1015.62 1015.74 1015.98 1016.32 1016.68 1016.80 1016.32 1015.72 1015.65 1015.86 1017.75 1018.79 1019.12 1019.86 1020.42 1020.81 1021.20 1021.54 1021.79
1002.92 1003.82 1004.58 1006.16 1006.20 1006.57 1006.64 1007.27 1007.12 1007.19 1007.50 1008.21 1008.56 1009.06 1009.66 1010.38 1011.28 1011.84 1012.45 1013.25 1013.46 1013.87 1014.54 1014.80 1015.60 1015.63 1015.63 1015.70 1016.07 1015.99 1015.94 1015.81 1015.64 1016.36 1018.46 1018.98 1019.50 1020.09 1020.54 1020.96 1021.41 1021.74 1022.10
1002.08 1003.01 1004.05 1005.21 1005.53 1005.91 1006.20 1007.27 1007.00 1006.77 1007.30 1007.82 1008.43 1009.03 1009.60 1010.22 1010.85 1011.46 1011.73 1012.61 1013.12 1013.57 1014.20 1014.99 1015.05 1015.16 1015.38 1015.60 1015.66 1015.63 1015.83 1015.94 1015.82 1016.94 1018.78 1019.35 1019.76 1020.20 1020.66 1021.18 1021.54 1021.98 1022.32
1001.03 1002.26 1003.21 1004.50 1005.18 1005.73 1006.70 1007.51 1007.57 1006.90 1007.05 1007.68 1008.10 1008.84 1009.47 1009.84 1010.52 1011.14 1011.70 1012.28 1012.62 1013.39 1013.84 1014.42 1014.69 1014.67 1015.04 1015.38 1015.42 1015.87 1015.83 1016.00 1016.29 1016.86 1018.53 1019.68 1020.10 1020.30 1020.70 1021.23 1021.60 1022.11 1022.50
1000.56 1001.46 1002.69 1004.34 1005.26 1005.89 1006.67 1007.33 1007.62 1007.61 1007.48 1007.97 1008.10 1008.49 1009.20 1009.55 1010.14 1010.78 1011.60 1012.17 1012.54 1013.09 1013.59 1014.28 1014.44 1014.21 1014.87 1015.22 1015.37 1015.48 1015.86 1016.27 1017.06 1017.20 1018.24 1019.82 1020.26 1020.50 1020.70 1021.18 1021.63 1022.16 1022.55
999.85 1000.79 1002.23 1003.94 1005.02 1005.40 1006.02 1006.99 1007.39 1007.76 1007.86 1008.36 1008.43 1008.60 1009.10 1009.30 1009.90 1010.44 1011.14 1011.87 1012.45 1013.06 1013.56 1014.15 1014.60 1014.23 1014.26 1014.88 1015.35 1015.90 1015.92 1016.74 1017.25 1017.32 1018.06 1019.32 1020.28 1020.72 1020.89 1021.16 1021.76 1022.12 1022.54
999.10 1000.24 1001.65 1003.38 1004.56 1005.05 1005.46 1006.48 1007.26 1007.72 1007.93 1008.42 1008.45 1008.81 1008.96 1009.21 1009.90 1010.73 1011.34 1011.89 1012.34 1012.93 1013.51 1014.10 1014.53 1014.28 1014.52 1014.45 1015.22 1015.59 1016.07 1016.80 1017.18 1017.38 1017.77 1018.64 1019.75 1020.30 1020.97 1021.33 1021.78 1021.97 1022.40
998.48 999.96 1001.30 1003.10 1004.15 1004.85 1005.24 1006.60 1007.08 1007.61 1008.10 1008.37 1008.35 1008.86 1009.07 1009.47 1009.93 1010.62 1011.24 1011.82 1012.34 1012.94 1013.67 1014.10 1014.48 1014.21 1014.28 1014.70 1015.42 1015.41 1015.97 1016.52 1017.34 1017.44 1017.64 1018.36 1019.42 1020.19 1020.56 1021.45 1021.75 1021.95 1022.31
998.24 999.73 1001.18 1002.80 1003.62 1004.54 1005.34 1006.38 1006.65 1007.42 1008.11 1008.33 1008.48 1008.79 1008.86 1009.38 1010.02 1010.38 1011.05 1011.70 1012.30 1013.06 1013.66 1014.04 1014.26 1014.27 1014.09 1014.56 1015.12 1015.46 1016.24 1016.45 1017.04 1017.42 1017.72 1018.18 1018.65 1019.31 1019.81 1020.74 1021.47 1021.70 1022.16
997.92 999.46 1000.80 1002.24 1003.22 1004.09 1004.88 1005.62 1006.04 1006.89 1007.45 1008.03 1008.41 1008.61 1008.93 1009.31 1009.67 1010.28 1010.82 1011.46 1012.24 1012.80 1013.41 1013.84 1014.17 1014.20 1014.23 1014.54 1015.07 1016.03 1016.86 1017.15 1017.29 1017.30 1017.62 1017.92 1018.10 1018.69 1019.04 1019.75 1020.45 1020.62 1021.60
997.96 999.15 1000.35 1001.94 1002.89 1003.56 1004.24 1004.92 1005.48 1006.59 1006.96 1007.44 1007.98 1008.32 1008.57 1009.02 1009.46 1010.20 1010.29 1010.96 1011.69 1012.73 1013.39 1013.80 1014.22 1014.28 1013.94 1014.39 1014.96 1015.83 1017.10 1017.95 1017.92 1018.08 1018.08 1017.95 1018.21 1018.52 1018.94 1019.20 1019.42 1019.73 1020.17
997.78 998.73 999.93 1001.44 1002.43 1003.15 1003.74 1004.63 1005.56 1006.71 1006.94 1007.33 1007.47 1007.74 1008.14 1008.40 1008.78 1009.52 1009.70 1010.70 1011.26 1012.26 1012.83 1013.50 1013.86 1014.01 1014.06 1014.48 1014.67 1015.01 1016.07 1016.35 1017.33 1017.88 1018.20 1018.16 1018.08 1018.49 1018.40 1018.81 1019.14 1019.23 1019.50
997.40 998.45 999.54 1000.82 1001.87 1002.76 1003.37 1004.08 1005.10 1005.72 1006.38 1006.45 1006.68 1007.29 1007.89 1008.33 1008.66 1009.22 1010.09 1010.35 1010.82 1011.80 1012.56 1013.08 1013.64 1013.95 1013.84 1013.98 1014.21 1014.37 1014.90 1014.82 1015.68 1016.88 1017.62 1018.07 1018.00 1018.26 1018.43 1018.36 1018.80 1019.15 1019.37
996.98 998.16 999.28 1000.33 1001.28 1002.13 1002.77 1003.04 1004.22 1004.74 1005.58 1005.82 1006.25 1007.20 1008.03 1008.50 1009.04 1009.38 1009.69 1009.92 1010.65 1011.44 1012.15 1012.76 1013.38 1013.69 1013.57 1013.66 1013.80 1014.11 1014.67 1014.86 1015.12 1015.39 1016.24 1017.20 1017.81 1017.86 1018.16 1018.52 1018.38 1018.83 1019.17
996.44 997.82 999.11 999.91 1000.72 1001.65 1002.21 1002.81 1003.73 1004.33 1005.14 1005.43 1006.15 1007.08 1008.09 1008.65 1009.18 1009.33 1009.58 1009.90 1010.52 1011.13 1011.88 1012.62 1013.09 1013.34 1013.55 1013.78 1014.00 1014.23 1014.52 1014.92 1015.10 1015.09 1015.17 1015.71 1016.37 1016.88 1017.52 1017.97 1018.34 1018.39 1018.48
Wind_Speed
10 16 13 13 13 12 11 12 14 15 14 14 14 14 14 14 14 15 15 17 17 18 19 18 16 13 11 12 13 13 14 14 16 16 16 17 17 17 14 11 14 18 16
12 14 13 14 14 14 12 12 13 15 16 16 14 14 15 15 14 14 15 16 16 18 20 19 18 16 15 15 13 13 14 14 15 15 16 17 15 14 11 11 18 16 16
12 14 15 12 13 13 12 13 13 15 16 16 15 15 15 15 15 15 14 15 16 17 19 19 18 18 17 15 14 15 15 15 15 15 15 13 15 17 20 19 17 17 18
13 13 13 10 10 10 10 9 11 16 17 17 18 16 17 16 16 17 15 14 15 17 18 20 19 20 18 16 15 14 14 13 12 13 11 12 14 18 20 19 18 19 19
12 13 13 14 11 11 10 9 8 11 15 16 17 17 17 17 17 17 17 15 16 18 18 18 20 20 17 16 16 15 14 13 13 7 13 12 11 16 18 18 18 16 16
11 10 19 15 12 11 11 10 10 10 9 12 14 17 17 18 19 18 18 16 18 18 18 18 19 18 16 15 16 15 13 11 6 10 9 14 14 17 19 20 19 18 17
10 9 12 12 11 11 10 9 8 10 11 12 14 15 17 18 18 19 18 18 18 18 17 18 19 18 16 15 14 14 12 8 8 10 9 12 14 18 19 20 19 18 18
10 8 10 11 8 9 9 8 8 7 8 9 13 16 17 20 21 20 19 21 19 17 16 19 18 18 17 15 12 11 6 7 7 11 14 11 14 17 18 18 18 16 17
9 8 9 12 11 8 7 8 8 7 6 7 10 7 15 7 4 10 14 15 15 13 16 19 18 18 17 14 11 6 2 1 11 9 10 10 14 16 16 15 16 17 16
10 8 8 9 11 10 10 8 9 8 7 8 7 5 11 11 6 15 11 10 7 4 17 20 16 16 15 14 12 8 2 7 11 11 8 11 15 15 15 14 15 15 16
11 11 8 9 9 9 6 9 9 9 9 7 8 7 12 9 10 16 17 2 8 12 12 15 16 16 15 14 11 9 6 7 7 8 9 16 17 14 14 13 13 14 14
14 12 12 10 9 9 8 7 11 10 10 10 10 9 9 11 11 12 13 19 14 9 16 16 14 15 15 10 8 8 8 3 6 7 10 16 17 16 15 14 13 14 14
14 11 12 11 10 10 8 4 6 6 7 7 11 10 10 8 9 7 6 8 9 13 7 10 11 11 12 10 11 10 7 5 4 8 13 13 15 16 15 15 13 14 14
17 15 13 14 12 11 5 6 8 5 5 7 9 11 7 7 8 7 8 10 9 8 10 8 7 11 13 12 13 11 5 7 4 9 11 11 13 16 16 15 14 13 14
17 16 15 13 11 9 6 5 6 7 6 8 9 11 9 10 8 6 8 7 9 10 10 10 11 11 12 13 11 6 9 5 7 8 8 10 11 14 15 14 15 14 14
18 18 16 14 11 11 9 7 7 6 5 6 6 10 11 8 9 9 9 9 7 7 8 9 11 11 11 9 10 9 10 7 6 6 10 9 11 11 13 13 15 14 14
16 18 17 15 14 14 13 9 7 5 3 6 6 9 12 11 11 11 10 8 8 6 8 9 10 11 12 9 10 7 8 8 9 8 12 11 9 8 11 13 13 13 13
18 18 18 14 14 13 11 9 6 6 6 5 5 4 12 11 11 9 7 8 8 7 7 7 9 10 8 9 7 10 8 9 9 8 10 10 9 8 7 10 12 14 13
17 18 18 16 16 14 11 8 7 7 5 3 5 5 10 9 11 9 8 7 9 7 6 6 6 10 11 9 7 9 7 9 9 8 9 10 13 10 8 10 11 11 11
17 19 18 15 16 14 10 8 7 6 4 4 5 7 9 9 9 10 8 9 9 8 8 7 9 9 10 10 10 6 2 5 9 8 10 10 12 13 12 14 10 9 11
16 19 19 17 16 12 10 9 8 7 8 6 6 8 7 7 9 11 7 11 10 10 9 9 7 12 10 10 4 7 4 4 2 8 9 9 10 9 11 13 10 9 9
17 19 19 18 17 14 10 9 7 7 7 7 7 9 10 11 12 4 12 11 13 9 11 8 8 9 9 10 9 10 5 2 4 4 5 7 9 9 10 9 11 12 11
18 19 19 19 18 15 13 9 7 6 5 6 8 7 7 8 10 10 10 11 12 11 11 12 8 12 8 9 13 10 7 6 8 7 8 8 9 9 10 12 11 11 10
17 18 19 19 18 16 15 12 13 9 8 8 8 6 6 6 7 8 8 15 15 11 12 11 8 9 12 12 10 10 10 6 11 7 9 8 8 9 9 8 10 11 9
17 17 17 19 19 17 16 14 12 13 9 7 6 8 5 5 4 5 11 12 13 10 13 12 10 11 9 10 9 8 6 6 5 8 9 9 9 10 10 9 9 9 12
17 17 18 20 18 18 16 14 13 11 10 7 8 7 5 5 5 4 6 10 11 12 13 11 11 14 11 9 8 7 6 5 5 6 4 9 11 11 9 6 8 7 7
Wind_Direction
106 128 139 145 147 153 159 163 164 165 164 169 168 162 157 155 155 150 147 145 144 146 149 146 142 142 132 118 110 100 97 92 89 91 97 106 111 115 118 129 124 104 106
127 138 152 152 155 161 166 170 170 170 168 173 171 168 161 162 162 158 152 151 152 152 152 147 146 149 141 133 118 112 107 105 107 111 113 110 109 108 110 100 93 104 102
136 142 167 154 156 164 176 175 175 176 177 172 172 173 170 166 165 162 159 159 160 157 150 147 148 143 138 126 121 118 117 118 122 134 143 124 105 99 96 91 98 104 104
147 146 164 151 146 162 175 186 183 182 182 176 176 176 173 171 171 170 163 163 164 155 152 153 151 138 130 123 121 120 122 127 142 165 134 125 115 107 103 104 109 107 104
147 152 146 158 156 163 170 176 188 188 185 182 178 176 173 174 178 173 168 167 166 156 159 158 142 135 130 127 124 126 131 146 165 154 107 115 114 111 112 113 112 112 104
154 157 136 150 161 163 171 179 176 182 181 180 182 180 176 176 187 182 174 172 167 162 165 155 141 135 128 127 130 137 149 166 133 101 111 115 109 113 102 91 92 97 99
158 150 153 156 170 164 171 179 181 186 178 185 184 182 180 181 184 181 177 175 169 162 157 143 139 132 131 132 139 147 168 144 122 125 114 110 109 111 106 102 99 97 96
165 166 151 162 172 167 166 169 174 200 163 186 191 185 190 191 199 184 183 184 177 169 154 138 138 133 133 134 140 159 158 173 145 133 122 111 110 111 112 109 107 103 103
169 176 157 175 180 182 176 177 180 180 192 200 211 203 220 175 239 234 196 186 180 168 148 141 136 136 135 135 137 140 171 139 165 126 119 120 121 121 117 115 117 118 114
174 182 162 193 177 185 189 186 186 177 197 208 220 179 145 144 196 121 93 291 152 207 168 136 139 137 134 132 129 136 180 271 152 133 132 110 124 125 118 121 117 119 121
178 181 161 189 183 195 190 188 187 191 189 170 173 169 147 166 154 146 128 216 191 190 173 133 139 136 135 130 134 147 191 203 118 141 124 131 123 125 124 122 124 120 113
188 193 159 193 184 197 198 173 206 198 201 206 202 185 177 163 160 154 157 172 200 176 139 140 145 143 153 155 157 168 208 238 202 127 115 128 126 135 135 128 123 123 122
201 198 184 188 182 193 203 185 215 199 195 196 202 189 184 162 159 164 160 188 181 157 153 133 147 173 176 169 167 181 200 161 197 104 123 122 137 144 139 135 133 133 131
198 201 195 185 187 188 191 199 234 186 174 186 192 193 171 167 160 169 177 174 176 170 152 164 179 186 181 174 174 188 160 192 150 106 130 130 145 148 143 146 143 143 140
213 200 184 187 190 167 155 189 230 253 183 181 187 192 181 177 164 160 176 175 182 171 169 176 192 181 182 173 168 153 161 199 135 116 133 135 145 147 151 158 151 155 147
216 196 186 176 187 163 175 187 198 224 178 209 199 190 200 182 173 178 175 178 179 182 178 185 193 172 168 171 167 172 171 138 159 153 135 153 157 164 159 160 153 160 163
215 199 186 178 183 176 191 186 198 182 205 179 200 202 198 189 187 181 181 172 173 173 175 179 195 181 172 173 171 161 152 156 180 180 145 148 159 164 150 157 169 165 168
204 194 175 174 183 186 188 157 184 189 202 173 187 195 203 194 179 158 167 169 157 147 165 180 188 187 167 176 135 160 161 167 164 177 161 155 162 166 168 169 169 170 175
194 185 175 175 184 186 169 158 175 176 187 206 161 179 197 186 178 169 175 152 154 152 164 180 193 187 176 136 151 166 164 164 167 180 155 148 163 171 179 173 175 168 172
187 177 171 177 180 180 153 177 171 149 184 175 185 196 205 192 182 194 170 153 161 158 168 177 190 186 173 149 178 153 118 142 171 178 179 167 168 183 186 168 178 176 175
183 176 177 178 179 173 175 178 174 188 189 187 190 185 179 195 213 198 188 160 167 171 172 176 195 182 195 155 132 115 94 60 93 176 185 193 177 195 190 174 186 190 181
186 181 177 177 181 175 183 178 164 180 206 198 193 189 192 206 208 229 169 166 168 166 166 172 189 197 189 151 151 152 137 125 199 191 208 210 196 192 206 213 196 196 180
192 183 181 179 181 181 178 167 161 171 199 197 197 186 204 207 212 192 161 162 168 164 175 182 193 192 177 170 176 172 160 184 179 187 201 228 192 218 210 203 210 209 213
197 185 183 178 178 183 173 163 180 179 188 207 189 179 198 220 221 167 184 188 166 169 177 185 192 199 183 182 199 189 189 213 174 163 198 215 221 222 227 220 208 221 215
188 184 183 177 180 179 186 171 189 194 192 199 173 156 180 142 162 190 184 168 163 168 171 176 192 204 204 190 190 203 199 252 198 180 181 191 207 210 217 217 220 212 219
181 177 184 178 178 181 182 179 194 179 191 179 167 158 158 146 154 124 163 165 165 163 164 182 194 201 204 192 192 216 210 211 237 237 228 186 192 202 214 217 214 232 224